"2016-06-20 00:00:00",1738011,6.062,73.01,0.665,0.069,27.53,112.0835,30.25,31.24,10.12,0,111.5,12.98,31.11,35.0
"2016-06-20 00:00:30",1738012,6.088,73.68,0.758,0.144,27.46,112.0835,30.25,31.24,10.04,0,111.5,12.98,31.11,35.7
"2016-06-20 00:01:00",1738013,6.222,74.32,0.635,0.145,27.44,112.0835,30.25,31.26,10.04,0,111.5,12.98,31.11,36.3
"2016-06-20 00:01:30",1738014,6.389,76.18,1.525,0.244,27.51,112.0854,30.26,31.26,9.99,0,111.5,12.98,31.11,38.2
"2016-06-20 00:02:00",1738015,6.725,76.34,1.236,0.085,27.51,112.0919,30.27,31.25,10.02,0,111.5,12.97,31.13,38.3
"2016-06-20 00:02:30",1738016,6.72,75.77,0.918,0.146,27.48,112.0933,30.28,31.27,10.09,0,111.5,12.98,31.13,37.8
"2016-06-20 00:03:00",1738017,6.653,77.84,1.147,0.057,27.53,112.1034,30.3,31.29,10.14,0,111.5,12.98,31.16,39.8
"2016-06-20 00:03:30",1738018,6.658,77.97,0.713,0.138,27.53,112.1138,30.33,31.28,9.85,0,111.5,12.98,31.19,40.0
"2016-06-20 00:04:00",1738019,6.371,76.73,1.581,0.075,27.57,112.1168,30.34,31.29,9.97,0,111.5,12.98,31.20,38.7
"2016-06-20 00:04:30",1738020,6.153,76.7,0.891,0.115,27.38,112.1171,30.34,31.3,9.94,0,111.5,12.97,31.20,38.7
"2016-06-20 00:05:00",1738021,6.243,74.79,0.638,0.242,27.32,112.1171,30.34,31.31,10.02,0,111.5,12.96,31.20,36.8
"2016-06-20 00:05:30",1738022,6.354,76.89,0.857,0.093,27.35,112.1171,30.34,31.31,9.85,0,111.5,12.97,31.20,38.9
"2016-06-20 00:06:00",1738023,6.204,76.12,0.7,0.089,27.37,112.1171,30.34,31.33,9.58,0,111.5,12.96,31.20,38.1
"2016-06-20 00:06:30",1738024,6.554,76.82,0.65,0.248,27.43,112.1177,30.34,31.32,9.55,0,111.5,12.96,31.20,38.8
"2016-06-20 00:07:00",1738025,6.731,76.23,1.168,0.152,27.54,112.1236,30.36,31.35,9.61,0,111.5,12.96,31.21,38.2
"2016-06-20 00:07:30",1738026,6.771,76.57,1.087,0.125,27.66,112.1326,30.38,31.34,9.54,0,111.5,12.96,31.24,38.6
"2016-06-20 00:08:00",1738027,7.12,76.7,0.499,0.071,27.69,112.1399,30.4,31.35,9.45,0,111.5,12.97,31.26,38.7
"2016-06-20 00:08:30",1738028,7.054,75.68,0.748,0.08,27.74,112.1399,30.4,31.35,9.4,0,111.5,12.97,31.26,37.7
"2016-06-20 00:09:00",1738029,7.133,74.4,0.609,0.068,27.73,112.1446,30.41,31.37,9.31,0,111.5,12.97,31.27,36.4
"2016-06-20 00:09:30",1738030,7.173,73.96,0.515,0.079,27.75,112.1463,30.41,31.36,9.36,0,111.5,12.97,31.27,36.0
"2016-06-20 00:10:00",1738031,7.292,74.93,0.945,0.08,27.75,112.1474,30.42,31.38,9.37,0,111.5,12.97,31.27,36.9
"2016-06-20 00:10:30",1738032,7.828,75.94,2.818,0.309,27.63,112.1483,30.42,31.38,9.31,0,111.5,12.97,31.28,37.9
"2016-06-20 00:11:00",1738033,8.01,77.97,4.177,0.496,27.49,112.148,30.42,31.39,9.91,0,111.5,12.97,31.28,40.0
"2016-06-20 00:11:30",1738034,8.94,72.02,1.837,0.429,27.46,112.1432,30.41,31.38,10.14,0,111.5,12.97,31.26,34.0
"2016-06-20 00:12:00",1738035,9.85,71.15,1.525,0.18,27.45,112.1314,30.38,31.39,10.48,0,111.5,12.97,31.23,33.2
"2016-06-20 00:12:30",1738036,9.51,72.79,0.921,0.184,27.49,112.1171,30.34,31.38,10.7,0,111.5,12.97,31.20,34.8
"2016-06-20 00:13:00",1738037,9.18,72.33,1.407,0.359,27.43,112.1171,30.34,31.37,11.03,0,111.5,12.97,31.20,34.3
"2016-06-20 00:13:30",1738038,9.62,73.11,0.935,0.176,27.59,112.1023,30.3,31.36,10.97,0,111.5,12.97,31.16,35.1
"2016-06-20 00:14:00",1738039,9.65,74.17,0.515,0.145,27.62,112.0837,30.25,31.34,10.94,0,111.5,12.97,31.11,36.2
"2016-06-20 00:14:30",1738040,9.29,73.66,0.599,0.131,27.62,112.079,30.24,31.31,11.02,0,111.5,12.98,31.10,35.7
"2016-06-20 00:15:00",1738041,9.41,72.21,0.819,0.239,27.52,112.0549,30.18,31.29,11.15,0,111.5,12.97,31.04,34.2
"2016-06-20 00:15:30",1738042,9.89,72.19,0.973,0.136,27.49,112.0464,30.16,31.27,11.22,0,111.5,12.97,31.01,34.2
"2016-06-20 00:16:00",1738043,9.65,73.19,1.082,0.236,27.55,112.0206,30.09,31.24,11.15,0,111.5,12.97,30.95,35.2
"2016-06-20 00:16:30",1738044,9.58,73.79,1.091,0.221,27.67,112.0162,30.08,31.21,11.01,0,111.5,12.98,30.94,35.8
"2016-06-20 00:17:00",1738045,9.4,76.23,1.014,0.176,27.64,111.9937,30.02,31.17,10.91,0,111.5,12.98,30.88,38.2
"2016-06-20 00:17:30",1738046,9.38,75.71,1.798,0.103,27.62,111.9825,29.99,31.15,10.91,0,111.5,12.98,30.85,37.7
"2016-06-20 00:18:00",1738047,9.47,74.03,1.423,0.265,27.61,111.9755,29.97,31.11,10.83,0,111.5,12.98,30.83,36.0
"2016-06-20 00:18:30",1738048,9.59,73.5,0.814,0.473,27.61,111.9508,29.91,31.09,10.76,0,111.5,12.98,30.77,35.5
"2016-06-20 00:19:00",1738049,10.21,72.94,0.533,0.078,27.61,111.9486,29.91,31.05,10.73,0,111.5,12.98,30.76,34.9
"2016-06-20 00:19:30",1738050,10.19,74.86,0.782,0.074,27.65,111.9303,29.86,31.03,10.74,0,111.5,12.98,30.71,36.9
"2016-06-20 00:20:00",1738051,10.34,75.18,0.62,0.105,27.65,111.9155,29.82,31,11,0,111.5,12.98,30.68,37.2
"2016-06-20 00:20:30",1738052,10.37,75.04,0.651,0.153,27.61,111.9146,29.82,30.95,11.17,0,111.5,12.98,30.67,37.0
"2016-06-20 00:21:00",1738053,10.45,74.13,1.046,0.33,27.54,111.8944,29.77,30.93,11.35,0,111.5,12.98,30.62,36.1
"2016-06-20 00:21:30",1738054,11.08,73.46,0.698,0.209,27.57,111.8815,29.73,30.91,11.61,0,111.5,12.98,30.59,35.5
"2016-06-20 00:22:00",1738055,10.85,73.18,0.815,0.27,27.58,111.881,29.73,30.87,11.74,0,111.5,12.97,30.59,35.2
"2016-06-20 00:22:30",1738056,10.81,74.68,0.737,0.21,27.59,111.8676,29.7,30.86,11.83,0,111.5,12.97,30.55,36.7
"2016-06-20 00:23:00",1738057,11.12,74.69,0.615,0.131,27.57,111.8488,29.65,30.82,11.8,0,111.5,12.97,30.50,36.7
"2016-06-20 00:23:30",1738058,10.58,75.29,0.659,0.129,27.58,111.8489,29.65,30.79,11.76,0,111.5,12.97,30.50,37.3
"2016-06-20 00:24:00",1738059,10.71,76.99,1.197,0.137,27.62,111.8335,29.61,30.77,11.83,0,111.5,12.97,30.46,39.0
"2016-06-20 00:24:30",1738060,10.76,75.68,0.733,0.168,27.58,111.8207,29.58,30.74,11.71,0,111.5,12.97,30.43,37.7
"2016-06-20 00:25:00",1738061,11.05,75.14,1.202,0.138,27.55,111.822,29.58,30.72,11.67,0,111.5,12.97,30.43,37.1
"2016-06-20 00:25:30",1738062,10.93,75.78,0.85,0.128,27.56,111.8265,29.59,30.7,11.65,0,111.5,12.97,30.45,37.8
"2016-06-20 00:26:00",1738063,10.92,75.63,0.687,0.092,27.62,111.8093,29.55,30.66,11.45,0,111.5,12.97,30.40,37.6
"2016-06-20 00:26:30",1738064,10.56,77.56,0.591,0.126,27.63,111.7974,29.52,30.64,11.56,0,111.5,12.97,30.37,39.6
"2016-06-20 00:27:00",1738065,10.43,75.81,0.791,0.12,27.64,111.8034,29.53,30.63,11.58,0,111.5,12.97,30.39,37.8
"2016-06-20 00:27:30",1738066,10.39,74.86,0.451,0.089,27.65,111.8053,29.54,30.61,11.5,0,111.5,12.97,30.39,36.9
"2016-06-20 00:28:00",1738067,10.39,74.8,0.544,0.1,27.62,111.8043,29.53,30.56,11.54,0,111.5,12.98,30.39,36.8
"2016-06-20 00:28:30",1738068,10.42,76.77,0.812,0.104,27.69,111.7955,29.51,30.57,11.73,0,111.5,12.98,30.37,38.8
"2016-06-20 00:29:00",1738069,10.59,78.07,0.794,0.109,27.63,111.7835,29.48,30.56,11.81,0,111.5,12.98,30.33,40.1
"2016-06-20 00:29:30",1738070,10.39,77.77,1.105,0.085,27.61,111.7785,29.47,30.53,11.82,0,111.5,12.98,30.32,39.8
"2016-06-20 00:30:00",1738071,10.29,76.66,0.515,0.079,27.64,111.7748,29.46,30.52,11.84,0,111.5,12.98,30.31,38.7
"2016-06-20 00:30:30",1738072,9.97,77.94,0.713,0.221,27.64,111.7751,29.46,30.51,11.84,0,111.5,12.98,30.31,39.9
"2016-06-20 00:31:00",1738073,9.94,79.24,0.607,0.121,27.61,111.7751,29.46,30.48,11.76,0,111.5,12.98,30.31,41.2
"2016-06-20 00:31:30",1738074,9.98,79.5,0.811,0.18,27.65,111.7751,29.46,30.48,11.67,0,111.5,12.98,30.31,41.5
"2016-06-20 00:32:00",1738075,10.02,80.2,0.507,0.09,27.62,111.7751,29.46,30.47,11.58,0,111.5,12.98,30.31,42.2
"2016-06-20 00:32:30",1738076,9.65,83.1,1.065,0.157,27.68,111.7758,29.46,30.45,11.49,0,111.5,12.98,30.32,45.1
"2016-06-20 00:33:00",1738077,8.99,83,1.24,0.214,27.65,111.7747,29.46,30.45,11.42,0,111.5,12.98,30.31,45.0
"2016-06-20 00:33:30",1738078,9.06,84.8,0.61,0.161,27.71,111.7766,29.46,30.44,11.22,0,111.5,12.98,30.32,46.8
"2016-06-20 00:34:00",1738079,8.98,83,0.7,0.188,27.6,111.7763,29.46,30.45,11.14,0,111.5,12.98,30.32,45.0
"2016-06-20 00:34:30",1738080,9.15,82.4,0.868,0.121,27.53,111.7805,29.47,30.44,11.26,0,111.5,12.98,30.33,44.4
"2016-06-20 00:35:00",1738081,9.06,81.1,0.818,0.122,27.5,111.7811,29.47,30.44,11.3,0,111.5,12.98,30.33,43.1
"2016-06-20 00:35:30",1738082,9.2,80.8,0.877,0.11,27.51,111.782,29.48,30.44,11.29,0,111.5,12.98,30.33,42.8
"2016-06-20 00:36:00",1738083,9.23,79.37,0.713,0.173,27.53,111.7823,29.48,30.43,11.32,0,111.5,12.98,30.33,41.4
"2016-06-20 00:36:30",1738084,9.15,81.1,0.625,0.1,27.48,111.7836,29.48,30.44,11.37,0,111.5,12.98,30.34,43.1
"2016-06-20 00:37:00",1738085,9.16,78.76,2.048,0.239,27.42,111.7839,29.48,30.43,11.45,0,111.5,12.98,30.34,40.8
"2016-06-20 00:37:30",1738086,8.96,79.11,1.811,0.219,27.29,111.7842,29.48,30.44,11.64,0,111.5,12.98,30.34,41.1
"2016-06-20 00:38:00",1738087,9.19,79.57,1.429,0.149,27.18,111.7845,29.48,30.44,11.46,0,111.5,12.98,30.34,41.6
"2016-06-20 00:38:30",1738088,9.18,79.55,1.78,0.197,27.08,111.7854,29.49,30.45,11.73,0,111.5,12.98,30.34,41.6
"2016-06-20 00:39:00",1738089,9.33,79.99,0.663,0.142,27.02,111.789,29.49,30.45,11.97,0,111.5,12.98,30.35,42.0
"2016-06-20 00:39:30",1738090,9.19,80.3,0.793,0.176,27.05,111.7935,29.51,30.46,11.56,0,111.5,12.98,30.36,42.3
"2016-06-20 00:40:00",1738091,9.38,82.3,1.189,0.259,27.07,111.7988,29.52,30.48,11.58,0,111.5,12.98,30.37,44.3
"2016-06-20 00:40:30",1738092,8.63,77.97,1.91,0.273,27.06,111.8106,29.55,30.47,11.86,0,111.5,12.98,30.40,40.0
"2016-06-20 00:41:00",1738093,8.13,76.99,2.489,0.218,27.04,111.8176,29.57,30.49,12.14,0,111.5,12.97,30.42,39.0
"2016-06-20 00:41:30",1738094,8.81,79.52,1.04,0.204,27.03,111.8179,29.57,30.5,12.4,0,111.5,12.97,30.42,41.5
"2016-06-20 00:42:00",1738095,8.91,75.84,2.41,0.296,27.08,111.8182,29.57,30.51,11.98,0,111.5,12.97,30.42,37.8
"2016-06-20 00:42:30",1738096,9.07,77.76,1.868,0.275,27.15,111.8182,29.57,30.51,11.87,0,111.5,12.97,30.42,39.8
"2016-06-20 00:43:00",1738097,8.97,77.46,1.086,0.281,27.19,111.8182,29.57,30.53,11.65,0,111.5,12.97,30.42,39.5
"2016-06-20 00:43:30",1738098,9.22,78.48,0.916,0.244,27.19,111.8185,29.57,30.53,11.65,0,111.5,12.97,30.43,40.5
"2016-06-20 00:44:00",1738099,8.92,76.89,1.636,0.105,27.17,111.8196,29.57,30.54,11.57,0,111.5,12.97,30.43,38.9
"2016-06-20 00:44:30",1738100,8.97,79.09,1.197,0.337,27.15,111.8297,29.6,30.55,11.68,0,111.5,12.97,30.45,41.1
"2016-06-20 00:45:00",1738101,8.87,75.1,2.672,0.154,27.16,111.8392,29.62,30.55,11.81,0,111.5,12.98,30.48,37.1
"2016-06-20 00:45:30",1738102,8.65,77.39,1.108,0.117,27.18,111.8479,29.65,30.56,11.64,0,111.5,12.98,30.50,39.4
"2016-06-20 00:46:00",1738103,8.78,76.89,0.698,0.233,27.19,111.8516,29.66,30.58,11.48,0,111.5,12.98,30.51,38.9
"2016-06-20 00:46:30",1738104,8.84,76.35,0.996,0.227,27.2,111.8518,29.66,30.59,11.55,0,111.5,12.98,30.51,38.3
"2016-06-20 00:47:00",1738105,8.79,77.94,1.04,0.163,27.17,111.8518,29.66,30.58,11.71,0,111.5,12.98,30.51,39.9
"2016-06-20 00:47:30",1738106,8.35,79.9,2.175,0.23,27.14,111.8518,29.66,30.59,11.75,0,111.5,12.98,30.51,41.9
"2016-06-20 00:48:00",1738107,8.41,81.6,1.823,0.272,27.12,111.8518,29.66,30.6,11.8,0,111.5,12.98,30.51,43.6
"2016-06-20 00:48:30",1738108,8.8,79.06,1.954,0.196,27.28,111.8518,29.66,30.61,11.66,0,111.5,12.98,30.51,41.1
"2016-06-20 00:49:00",1738109,8.45,76.73,1.295,0.171,27.23,111.8518,29.66,30.6,11.7,0,111.5,12.98,30.51,38.7
"2016-06-20 00:49:30",1738110,7.925,77.68,2.05,0.2,27.32,111.8518,29.66,30.6,11.7,0,111.5,12.98,30.51,39.7
"2016-06-20 00:50:00",1738111,7.817,80.7,1.114,0.151,27.28,111.8518,29.66,30.61,11.76,0,111.5,12.98,30.51,42.7
"2016-06-20 00:50:30",1738112,7.73,79.49,1.708,0.143,27.26,111.8518,29.66,30.63,11.78,0,111.5,12.98,30.51,41.5
"2016-06-20 00:51:00",1738113,8.31,81.7,1.877,0.27,27.24,111.8518,29.66,30.62,11.81,0,111.5,12.98,30.51,43.7
"2016-06-20 00:51:30",1738114,8.42,80.5,1.753,0.117,27.23,111.8518,29.66,30.63,11.77,0,111.5,12.98,30.51,42.5
"2016-06-20 00:52:00",1738115,8.5,80.1,2.598,0.147,27.25,111.8518,29.66,30.62,11.86,0,111.5,12.98,30.51,42.1
"2016-06-20 00:52:30",1738116,8.51,82.9,3.104,0.236,27.18,111.8518,29.66,30.62,11.92,0,111.5,12.98,30.51,44.9
"2016-06-20 00:53:00",1738117,8.23,78.49,2.11,0.275,27.13,111.8518,29.66,30.62,12.11,0,111.5,12.98,30.51,40.5
"2016-06-20 00:53:30",1738118,8.36,78.94,2.025,0.243,27.13,111.8518,29.66,30.62,12.06,0,111.5,12.98,30.51,40.9
"2016-06-20 00:54:00",1738119,8.57,82.8,1.505,0.225,27.12,111.8518,29.66,30.63,12.18,0,111.5,12.98,30.51,44.8
"2016-06-20 00:54:30",1738120,8.63,77.98,1.753,0.305,27.06,111.8518,29.66,30.63,12.24,0,111.5,12.98,30.51,40.0
"2016-06-20 00:55:00",1738121,7.879,85.4,1.994,0.459,27.07,111.8518,29.66,30.63,12.21,0,111.5,12.98,30.51,47.4
"2016-06-20 00:55:30",1738122,8.14,81.4,2.977,0.395,27,111.8518,29.66,30.62,12.24,0,111.5,12.98,30.51,43.4
"2016-06-20 00:56:00",1738123,8.26,82.8,2.242,0.261,27.06,111.8518,29.66,30.62,12.3,0,111.5,12.98,30.51,44.8
"2016-06-20 00:56:30",1738124,8.9,82.8,2.203,0.419,27.08,111.8518,29.66,30.62,12.32,0,111.5,12.98,30.51,44.8
"2016-06-20 00:57:00",1738125,9.54,84.2,2.418,0.255,27.06,111.8518,29.66,30.63,11.92,0,111.5,12.98,30.51,46.2
"2016-06-20 00:57:30",1738126,9.64,85.4,1.446,0.253,27.06,111.8518,29.66,30.63,12,0,111.5,12.98,30.51,47.4
"2016-06-20 00:58:00",1738127,9.36,83.9,3.336,0.372,27.04,111.8516,29.66,30.63,12,0,111.5,12.97,30.51,45.9
"2016-06-20 00:58:30",1738128,9.97,83,2.421,0.3,27,111.8504,29.65,30.63,11.84,0,111.5,12.97,30.51,45.0
"2016-06-20 00:59:00",1738129,9.87,85.6,1.552,0.529,27,111.8451,29.64,30.61,11.81,0,111.5,12.97,30.49,47.6
"2016-06-20 00:59:30",1738130,10.17,85.3,0.594,0.124,27.03,111.8384,29.62,30.6,11.63,0,111.5,12.97,30.48,47.3
"2016-06-20 01:00:00",1738131,10.15,88.6,2.423,0.773,27.01,111.8311,29.6,30.6,12.01,0,111.5,12.97,30.46,50.6
"2016-06-20 01:00:30",1738132,10.82,91.6,1.242,0.354,26.98,111.8241,29.58,30.6,11.97,0,111.5,12.97,30.44,53.6
"2016-06-20 01:01:00",1738133,9.63,90.9,2.276,0.553,26.98,111.8182,29.57,30.59,12.22,0,111.5,12.97,30.42,52.9
"2016-06-20 01:01:30",1738134,10.11,87.9,2.458,0.404,26.95,111.8182,29.57,30.59,12.31,0,111.5,12.97,30.42,49.9
"2016-06-20 01:02:00",1738135,10.09,89.2,1.355,0.311,26.91,111.8182,29.57,30.58,12.02,0,111.5,12.98,30.42,51.2
"2016-06-20 01:02:30",1738136,10.72,91.6,0.952,0.167,26.94,111.8182,29.57,30.56,11.83,0,111.5,12.98,30.42,53.6
"2016-06-20 01:03:00",1738137,10.47,91.4,0.652,0.115,26.98,111.8162,29.56,30.56,11.53,0,111.5,12.98,30.42,53.4
"2016-06-20 01:03:30",1738138,9.96,89.8,1.776,0.382,26.92,111.7985,29.52,30.55,11.83,0,111.5,12.98,30.37,51.8
"2016-06-20 01:04:00",1738139,10.02,89.6,0.713,0.141,26.97,111.7898,29.5,30.53,11.53,0,111.5,12.98,30.35,51.6
"2016-06-20 01:04:30",1738140,9.73,89.5,0.57,0.139,26.96,111.7845,29.48,30.51,11.28,0,111.5,12.98,30.34,51.5
"2016-06-20 01:05:00",1738141,9.72,88.9,1.265,0.19,26.96,111.7845,29.48,30.51,11.22,0,111.5,12.98,30.34,50.9
"2016-06-20 01:05:30",1738142,9.98,88.7,1.783,0.301,26.95,111.7842,29.48,30.49,11.43,0,111.5,12.98,30.34,50.7
"2016-06-20 01:06:00",1738143,9.81,90.7,0.735,0.279,26.94,111.7845,29.48,30.48,11.48,0,111.5,12.98,30.34,52.7
"2016-06-20 01:06:30",1738144,9.51,90.5,1.582,0.164,26.97,111.7845,29.48,30.46,11.56,0,111.5,12.98,30.34,52.5
"2016-06-20 01:07:00",1738145,9.96,89.5,1.509,0.246,26.99,111.7814,29.47,30.45,11.59,0,111.5,12.98,30.33,51.5
"2016-06-20 01:07:30",1738146,10.03,87.8,1.235,0.179,27.04,111.7688,29.44,30.45,11.58,0,111.5,12.98,30.30,49.8
"2016-06-20 01:08:00",1738147,10.01,89.1,1.904,0.257,27,111.7598,29.42,30.44,11.53,0,111.5,12.98,30.27,51.1
"2016-06-20 01:08:30",1738148,10.08,89.2,1.954,0.261,27,111.7565,29.41,30.44,11.59,0,111.5,12.98,30.27,51.2
"2016-06-20 01:09:00",1738149,9.93,89,1.117,0.344,27.04,111.7508,29.4,30.42,11.72,0,111.5,12.98,30.25,51.0
"2016-06-20 01:09:30",1738150,10.1,89.8,1.313,0.211,27.01,111.7508,29.4,30.41,11.74,0,111.5,12.98,30.25,51.8
"2016-06-20 01:10:00",1738151,10.07,88.6,1.407,0.194,26.99,111.7508,29.4,30.41,11.65,0,111.5,12.98,30.25,50.6
"2016-06-20 01:10:30",1738152,9.91,91.8,1.682,0.229,26.91,111.7508,29.4,30.39,12.02,0,111.5,12.98,30.25,53.8
"2016-06-20 01:11:00",1738153,9.22,90,1.94,0.539,26.88,111.7376,29.36,30.38,12.01,0,111.5,12.98,30.22,52.0
"2016-06-20 01:11:30",1738154,10.1,90.1,0.802,0.146,26.96,111.7245,29.33,30.38,11.66,0,111.5,12.98,30.18,52.1
"2016-06-20 01:12:00",1738155,10.21,90.9,1.391,0.242,26.94,111.7177,29.31,30.35,11.56,0,111.5,12.98,30.17,52.9
"2016-06-20 01:12:30",1738156,10.16,91,2.322,0.439,26.78,111.7172,29.31,30.35,12.41,0,111.5,12.98,30.16,53.0
"2016-06-20 01:13:00",1738157,10.63,93.6,1.397,0.368,26.76,111.7146,29.3,30.32,12.48,0,111.5,12.98,30.16,55.6
"2016-06-20 01:13:30",1738158,10.22,90.7,1.764,0.207,26.83,111.6998,29.26,30.3,12.45,0,111.5,12.98,30.12,52.7
"2016-06-20 01:14:00",1738159,10.25,93.4,2.303,0.526,26.81,111.688,29.23,30.3,12.55,0,111.5,12.98,30.09,55.4
"2016-06-20 01:14:30",1738160,9.73,91.3,1.357,0.431,26.79,111.6835,29.22,30.28,12.65,0,111.5,12.98,30.08,53.3
"2016-06-20 01:15:00",1738161,9.98,92.4,0.557,0.155,26.95,111.681,29.22,30.26,12.25,0,111.5,12.98,30.07,54.4
"2016-06-20 01:15:30",1738162,9.71,92.2,0.473,0.164,26.99,111.6613,29.17,30.24,11.77,0,111.5,12.98,30.02,54.2
"2016-06-20 01:16:00",1738163,9.45,90.6,0.735,0.08,26.99,111.6512,29.14,30.22,11.57,0,111.5,12.98,29.99,52.6
"2016-06-20 01:16:30",1738164,9.55,91.1,0.534,0.161,26.95,111.6498,29.14,30.2,11.36,0,111.5,12.98,29.99,53.1
"2016-06-20 01:17:00",1738165,9.48,91.7,0.5,0.141,26.89,111.6498,29.14,30.17,11.5,0,111.5,12.98,29.99,53.7
"2016-06-20 01:17:30",1738166,9.88,91,0.49,0.167,26.88,111.6498,29.14,30.17,11.74,0,111.5,12.98,29.99,53.0
"2016-06-20 01:18:00",1738167,9.7,90.1,0.569,0.187,26.9,111.6473,29.13,30.14,11.88,0,111.5,12.98,29.98,52.1
"2016-06-20 01:18:30",1738168,9.34,89.7,0.541,0.073,26.89,111.6423,29.12,30.13,11.96,0,111.5,12.98,29.97,51.7
"2016-06-20 01:19:00",1738169,9.27,90.2,0.494,0.085,26.92,111.6386,29.11,30.12,12.03,0,111.5,12.98,29.96,52.2
"2016-06-20 01:19:30",1738170,9.23,90.2,0.619,0.088,26.95,111.6355,29.1,30.11,12.01,0,111.5,12.98,29.95,52.2
"2016-06-20 01:20:00",1738171,9.15,90.4,0.527,0.097,26.9,111.6257,29.07,30.11,12,0,111.5,12.98,29.93,52.4
"2016-06-20 01:20:30",1738172,9.09,90.7,0.41,0.096,26.94,111.6206,29.06,30.1,11.82,0,111.5,12.98,29.91,52.7
"2016-06-20 01:21:00",1738173,8.94,91.5,0.596,0.068,26.93,111.617,29.05,30.09,11.52,0,111.5,12.98,29.91,53.5
"2016-06-20 01:21:30",1738174,8.94,91.9,0.394,0.049,26.94,111.6164,29.05,30.09,11.48,0,111.5,12.98,29.90,53.9
"2016-06-20 01:22:00",1738175,9.16,91.3,0.628,0.115,26.94,111.6162,29.05,30.09,11.39,0,111.5,12.98,29.90,53.3
"2016-06-20 01:22:30",1738176,9.41,92.2,0.311,0.108,26.95,111.6162,29.05,30.07,11.28,0,111.5,12.98,29.90,54.2
"2016-06-20 01:23:00",1738177,9.57,92.5,0.396,0.084,26.96,111.6162,29.05,30.07,11.29,0,111.5,12.98,29.90,54.5
"2016-06-20 01:23:30",1738178,9.54,92.1,0.459,0.086,26.89,111.6162,29.05,30.06,11.32,0,111.5,12.98,29.90,54.1
"2016-06-20 01:24:00",1738179,9.75,91.3,0.704,0.206,26.83,111.6162,29.05,30.05,11.4,0,111.5,12.98,29.90,53.3
"2016-06-20 01:24:30",1738180,9.33,94.3,1.801,0.13,26.9,111.6162,29.05,30.05,11.56,0,111.5,12.99,29.90,56.3
"2016-06-20 01:25:00",1738181,9.54,92.3,0.494,0.151,26.93,111.6162,29.05,30.06,11.36,0,111.5,12.99,29.90,54.3
"2016-06-20 01:25:30",1738182,9.59,94.6,0.945,0.165,26.92,111.6162,29.05,30.05,11.53,0,111.5,12.99,29.90,56.6
"2016-06-20 01:26:00",1738183,9.58,92.4,1.698,0.154,26.94,111.6162,29.05,30.05,11.55,0,111.5,12.99,29.90,54.4
"2016-06-20 01:26:30",1738184,9.44,94.3,1.06,0.206,26.92,111.6162,29.05,30.05,11.85,0,111.5,12.99,29.90,56.3
"2016-06-20 01:27:00",1738185,9.51,95.4,1.742,0.163,27,111.6162,29.05,30.04,11.95,0,111.5,12.99,29.90,57.4
"2016-06-20 01:27:30",1738186,9.56,94.8,1.03,0.141,27.04,111.6145,29.05,30.03,12,0,111.5,12.99,29.90,56.8
"2016-06-20 01:28:00",1738187,9.67,95.2,0.993,0.222,27.05,111.5971,29,30.04,12.09,0,111.5,12.99,29.85,57.2
"2016-06-20 01:28:30",1738188,9.31,94.5,1.04,0.156,27.18,111.5878,28.98,30.02,12.16,0,111.5,12.99,29.83,56.5
"2016-06-20 01:29:00",1738189,9.61,95.8,1.145,0.403,27.27,111.5825,28.96,30.03,12.23,0,111.5,12.99,29.82,57.8
"2016-06-20 01:29:30",1738190,9.98,97,0.732,0.185,27.34,111.5825,28.96,30.01,12.23,0,111.5,12.99,29.82,59.0
"2016-06-20 01:30:00",1738191,9.75,93.6,1.116,0.314,27.3,111.5797,28.96,29.99,12.31,0,111.5,12.99,29.81,55.6
"2016-06-20 01:30:30",1738192,9.36,93.2,1.363,0.134,27.22,111.5713,28.93,29.98,12.45,0,111.5,12.99,29.79,55.2
"2016-06-20 01:31:00",1738193,9.59,96.7,0.852,0.203,27.36,111.5536,28.89,29.97,12.47,0,111.5,12.99,29.74,58.7
"2016-06-20 01:31:30",1738194,9.8,96,1.025,0.157,27.22,111.5488,28.88,29.95,12.67,0,111.5,12.98,29.73,58.0
"2016-06-20 01:32:00",1738195,10.12,96.8,0.495,0.092,27.26,111.5488,28.88,29.93,12.89,0,111.5,12.98,29.73,58.8
"2016-06-20 01:32:30",1738196,10.06,97.3,0.531,0.089,27.31,111.5359,28.84,29.91,13.08,0,111.5,12.98,29.70,59.3
"2016-06-20 01:33:00",1738197,9.98,97.8,0.506,0.091,27.37,111.5205,28.8,29.9,13.08,0,111.5,12.98,29.66,59.8
"2016-06-20 01:33:30",1738198,10.03,97.2,0.539,0.062,27.36,111.5151,28.79,29.89,13.08,0,111.5,12.98,29.64,59.2
"2016-06-20 01:34:00",1738199,10.07,97,0.495,0.059,27.34,111.5151,28.79,29.88,13.12,0,111.5,12.98,29.64,59.0
"2016-06-20 01:34:30",1738200,10.09,97.7,0.516,0.094,27.34,111.5101,28.78,29.86,13.14,0,111.5,12.98,29.63,59.7
"2016-06-20 01:35:00",1738201,10.01,97.2,0.475,0.09,27.21,111.4933,28.73,29.83,13.33,0,111.5,12.98,29.59,59.2
"2016-06-20 01:35:30",1738202,9.98,96.5,0.52,0.063,27.13,111.4835,28.71,29.81,13.47,0,111.5,12.98,29.56,58.5
"2016-06-20 01:36:00",1738203,9.98,95.7,0.449,0.072,27.06,111.484,28.71,29.81,13.5,0,111.5,12.98,29.56,57.7
"2016-06-20 01:36:30",1738204,10.06,95.8,0.432,0.079,26.99,111.4862,28.72,29.78,13.72,0,111.5,12.98,29.57,57.8
"2016-06-20 01:37:00",1738205,9.95,96.3,0.525,0.1,26.99,111.4817,28.7,29.79,13.85,0,111.5,12.98,29.56,58.3
"2016-06-20 01:37:30",1738206,9.81,96.1,0.487,0.063,26.96,111.4668,28.67,29.77,13.88,0,111.5,12.99,29.52,58.1
"2016-06-20 01:38:00",1738207,9.56,97,0.381,0.079,26.96,111.4606,28.65,29.75,13.9,0,111.5,12.99,29.50,59.0
"2016-06-20 01:38:30",1738208,9.54,97.3,0.497,0.078,26.97,111.4597,28.65,29.72,13.99,0,111.5,12.99,29.50,59.3
"2016-06-20 01:39:00",1738209,9.33,97.1,0.425,0.069,26.92,111.4622,28.65,29.72,14,0,111.5,12.99,29.51,59.1
"2016-06-20 01:39:30",1738210,9.35,97.2,0.438,0.095,26.92,111.4619,28.65,29.69,14.16,0,111.5,12.99,29.50,59.2
"2016-06-20 01:40:00",1738211,9.36,97.1,0.603,0.067,26.88,111.4613,28.65,29.68,14.38,0,111.5,12.99,29.50,59.1
"2016-06-20 01:40:30",1738212,9.36,95.7,0.627,0.058,26.84,111.4643,28.66,29.68,14.42,0,111.5,12.99,29.51,57.7
"2016-06-20 01:41:00",1738213,9.22,95.1,0.487,0.127,26.91,111.4548,28.63,29.65,14.39,0,111.5,12.99,29.49,57.1
"2016-06-20 01:41:30",1738214,9.41,95.6,0.743,0.075,26.82,111.4428,28.6,29.65,14.41,0,111.5,12.99,29.46,57.6
"2016-06-20 01:42:00",1738215,9.16,95.8,0.668,0.109,26.83,111.4392,28.59,29.64,14.46,0,111.5,12.99,29.45,57.8
"2016-06-20 01:42:30",1738216,9.06,96.1,0.437,0.077,26.9,111.4375,28.59,29.63,14.44,0,111.5,12.99,29.44,58.1
"2016-06-20 01:43:00",1738217,9.15,96.2,0.696,0.08,26.95,111.4376,28.59,29.61,14.4,0,111.5,12.99,29.44,58.2
"2016-06-20 01:43:30",1738218,9.09,97,0.585,0.071,26.96,111.4385,28.59,29.61,14.37,0,111.5,12.99,29.44,59.0
"2016-06-20 01:44:00",1738219,9.33,97,0.462,0.116,26.94,111.4385,28.59,29.6,14.41,0,111.5,12.99,29.44,59.0
"2016-06-20 01:44:30",1738220,9.72,99.1,0.298,0.157,26.92,111.4379,28.59,29.59,14.51,0,111.5,12.99,29.44,61.1
"2016-06-20 01:45:00",1738221,10.07,99.2,0.338,0.207,26.98,111.4231,28.55,29.58,14.33,0,111.5,12.99,29.40,61.2
"2016-06-20 01:45:30",1738222,10.2,99.8,0.45,0.048,27,111.4156,28.53,29.56,14.16,0,111.5,12.99,29.39,61.8
"2016-06-20 01:46:00",1738223,10.38,99.4,0.371,0.178,26.92,111.4086,28.52,29.55,14.29,0,111.5,12.99,29.37,61.4
"2016-06-20 01:46:30",1738224,10.57,99.1,0.289,0.049,26.86,111.4086,28.52,29.53,14.49,0,111.5,12.99,29.37,61.1
"2016-06-20 01:47:00",1738225,10.58,98.7,0.48,0.087,26.85,111.4072,28.51,29.52,14.56,0,111.5,12.99,29.36,60.7
"2016-06-20 01:47:30",1738226,10.79,97.9,0.694,0.102,26.83,111.3954,28.48,29.49,14.96,0,111.4,12.99,29.33,59.9
"2016-06-20 01:48:00",1738227,10.82,98.2,0.666,0.123,26.83,111.3767,28.43,29.48,15.05,0,111.4,12.99,29.28,60.2
"2016-06-20 01:48:30",1738228,10.75,98.6,0.462,0.082,26.93,111.3752,28.43,29.46,14.72,0,111.4,12.99,29.28,60.6